2011-04-01 00:00,4.26,
2011-04-02 00:00,3.97,
2011-04-03 00:00,4.05,
2011-04-04 00:00,1.46,
2011-04-05 00:00,2.38,
2011-04-06 00:00,1.17,
2011-04-07 00:00,3.24,
2011-04-08 00:00,5.67,
2011-04-09 00:00,5.37,
2011-04-10 00:00,6.04,
2011-04-11 00:00,7.15,
2011-04-12 00:00,8.83,
2011-04-13 00:00,3.90,
2011-04-14 00:00,3.32,
2011-04-15 00:00,4.09,
2011-04-16 00:00,2.96,
2011-04-17 00:00,1.94,
2011-04-18 00:00,0.90,
2011-04-19 00:00,2.37,
2011-04-20 00:00,2.56,
2011-04-21 00:00,1.81,
2011-04-22 00:00,2.98,
2011-04-23 00:00,5.70,
2011-04-24 00:00,5.91,
2011-04-25 00:00,1.83,
2011-04-26 00:00,9.61,
2011-04-27 00:00,2.94,
2011-04-28 00:00,9.62,
2011-04-29 00:00,3.27,
2011-04-30 00:00,2.07,
2011-05-01 00:00,7.32,
2011-05-02 00:00,21.37,
2011-05-03 00:00,21.70,
2011-05-04 00:00,30.86,
2011-05-05 00:00,29.82,
2011-05-06 00:00,19.95,
2011-05-07 00:00,17.46,
2011-05-08 00:00,13.88,
2011-05-09 00:00,9.73,
2011-05-10 00:00,8.90,
2011-05-11 00:00,9.28,
2011-05-12 00:00,7.13,
2011-05-13 00:00,6.99,
2011-05-14 00:00,7.58,
2011-05-15 00:00,1.51,
2011-05-16 00:00,3.32,
2011-05-17 00:00,2.10,
2011-05-18 00:00,0.02,
2011-05-19 00:00,0.40,
2011-05-20 00:00,,
2011-05-21 00:00,,
2011-05-22 00:00,,
2011-05-23 00:00,,
2011-05-24 00:00,,
2011-05-25 00:00,,
2011-05-26 00:00,,
2011-05-27 00:00,,
2011-05-28 00:00,,
2011-05-29 00:00,,
2011-05-30 00:00,,
2011-05-31 00:00,,
2011-06-01 00:00,,
2011-06-02 00:00,,
2011-06-03 00:00,,
2011-06-04 00:00,,
2011-06-05 00:00,,
2011-06-06 00:00,,
2011-06-07 00:00,,
2011-06-08 00:00,,
2011-06-09 00:00,,
2011-06-10 00:00,,
2011-06-11 00:00,,
2011-06-12 00:00,,
2011-06-13 00:00,,
2011-06-14 00:00,,
2011-06-15 00:00,,
2011-06-16 00:00,,
2011-06-17 00:00,,
2011-06-18 00:00,,
2011-06-19 00:00,,
2011-06-20 00:00,,
2011-06-21 00:00,,
2011-06-22 00:00,,
2011-06-23 00:00,,
2011-06-24 00:00,,
2011-06-25 00:00,,
2011-06-26 00:00,,
2011-06-27 00:00,,
2011-06-28 00:00,,
2011-06-29 00:00,,
2011-06-30 00:00,,
2011-07-01 00:00,,
2011-07-02 00:00,,
2011-07-03 00:00,,
2011-07-04 00:00,,
2011-07-05 00:00,,
2011-07-06 00:00,,
2011-07-07 00:00,,
2011-07-08 00:00,,
2011-07-09 00:00,,
2011-07-10 00:00,,
2011-07-11 00:00,,
2011-07-12 00:00,,
2011-07-13 00:00,,
2011-07-14 00:00,,
2011-07-15 00:00,,
2011-07-16 00:00,,
2011-07-17 00:00,,
2011-07-18 00:00,,
2011-07-19 00:00,,
2011-07-20 00:00,,
2011-07-21 00:00,,
2011-07-22 00:00,,
2011-07-23 00:00,,
2011-07-24 00:00,,
2011-07-25 00:00,0.27,
2011-07-26 00:00,,
2011-07-27 00:00,0.76,
2011-07-28 00:00,3.44,
2011-07-29 00:00,5.00,
2011-07-30 00:00,1.80,
2011-07-31 00:00,1.72,
2011-08-01 00:00,2.43,
2011-08-02 00:00,2.38,
2011-08-03 00:00,3.33,
2011-08-04 00:00,2.61,
2011-08-05 00:00,3.39,
2011-08-06 00:00,3.36,
2011-08-07 00:00,3.17,
2011-08-08 00:00,3.50,
2011-08-09 00:00,4.59,
2011-08-10 00:00,3.19,
2011-08-11 00:00,4.26,
2011-08-12 00:00,12.12,
2011-08-13 00:00,10.57,
2011-08-14 00:00,8.30,
2011-08-15 00:00,7.14,
2011-08-16 00:00,6.24,
2011-08-17 00:00,6.47,
2011-08-18 00:00,5.97,
2011-08-19 00:00,7.22,
2011-08-20 00:00,10.79,
2011-08-21 00:00,12.62,
2011-08-22 00:00,11.43,
2011-08-23 00:00,10.54,
2011-08-24 00:00,10.69,
2011-08-25 00:00,11.23,
2011-08-26 00:00,11.29,
2011-08-27 00:00,11.50,
2011-08-28 00:00,10.82,
2011-08-29 00:00,11.06,
2011-08-30 00:00,12.10,
2011-08-31 00:00,9.18,
2011-09-01 00:00,10.13,
2011-09-02 00:00,12.41,
2011-09-03 00:00,2.12,
2011-09-04 00:00,,
2011-09-05 00:00,4.13,
2011-09-06 00:00,7.49,
2011-09-07 00:00,4.58,
2011-09-08 00:00,3.71,
2011-09-09 00:00,6.26,
2011-09-10 00:00,8.02,
2011-09-11 00:00,6.92,
2011-09-12 00:00,8.64,
2011-09-13 00:00,12.58,
2011-09-14 00:00,13.84,
2011-09-15 00:00,11.78,
2011-09-16 00:00,6.75,
2011-09-17 00:00,11.98,
2011-09-18 00:00,12.31,
2011-09-19 00:00,9.41,
2011-09-20 00:00,6.94,
2011-09-21 00:00,6.96,
2011-09-22 00:00,9.01,
2011-09-23 00:00,8.14,
2011-09-24 00:00,6.24,
2011-09-25 00:00,3.54,
2011-09-26 00:00,3.05,
2011-09-27 00:00,4.17,
2011-09-28 00:00,4.18,
2011-09-29 00:00,2.29,
2011-09-30 00:00,2.19,
2011-10-01 00:00,2.56,
2011-10-02 00:00,3.32,
2011-10-03 00:00,2.35,
2011-10-04 00:00,,
2011-10-05 00:00,,
2011-10-06 00:00,2.14,
2011-10-07 00:00,,
2011-10-08 00:00,,
2011-10-09 00:00,,
2011-10-10 00:00,,
2011-10-11 00:00,,
2011-10-12 00:00,2.41,
2011-10-13 00:00,3.19,
2011-10-14 00:00,3.10,
2011-10-15 00:00,3.12,
2011-10-16 00:00,4.01,
2011-10-17 00:00,4.41,
2011-10-18 00:00,4.82,
2011-10-19 00:00,4.70,
2011-10-20 00:00,4.70,
2011-10-21 00:00,4.40,
2011-10-22 00:00,2.07,
2011-10-23 00:00,2.48,
2011-10-24 00:00,2.42,
2011-10-25 00:00,,
2011-10-26 00:00,,
2011-10-27 00:00,1.75,
2011-10-28 00:00,5.16,
2011-10-29 00:00,5.04,
2011-10-30 00:00,4.37,
2011-10-31 00:00,4.46,
2011-11-01 00:00,4.61,
2011-11-02 00:00,4.62,
2011-11-03 00:00,6.46,
2011-11-04 00:00,5.15,
2011-11-05 00:00,5.56,
2011-11-06 00:00,6.25,
2011-11-07 00:00,4.69,
2011-11-08 00:00,2.75,
2011-11-09 00:00,3.28,
2011-11-10 00:00,8.65,
2011-11-11 00:00,8.61,
2011-11-12 00:00,3.26,
2011-11-13 00:00,3.64,
2011-11-14 00:00,5.60,
2011-11-15 00:00,5.56,
2011-11-16 00:00,5.59,
2011-11-17 00:00,5.36,
2011-11-18 00:00,4.76,
2011-11-19 00:00,5.93,
2011-11-20 00:00,5.16,
2011-11-21 00:00,5.83,
2011-11-22 00:00,5.55,
2011-11-23 00:00,4.98,
2011-11-24 00:00,4.46,
2011-11-25 00:00,3.63,
2011-11-26 00:00,6.89,
2011-11-27 00:00,7.60,
2011-11-28 00:00,6.66,
2011-11-29 00:00,6.40,
2011-11-30 00:00,5.11,
2011-12-01 00:00,3.61,
2011-12-02 00:00,3.88,
2011-12-03 00:00,3.66,
2011-12-04 00:00,3.40,
2011-12-05 00:00,3.78,
2011-12-06 00:00,2.38,
2011-12-07 00:00,3.72,
2011-12-08 00:00,2.26,
2011-12-09 00:00,0.40,
2011-12-10 00:00,1.01,
2011-12-11 00:00,0.24,
2011-12-12 00:00,0.26,
2011-12-13 00:00,0.65,
2011-12-14 00:00,0.65,
2011-12-15 00:00,,
2011-12-16 00:00,0.06,
2011-12-17 00:00,0.24,
2011-12-18 00:00,,
2011-12-19 00:00,0.18,
2011-12-20 00:00,0.26,
2011-12-21 00:00,0.04,
2011-12-22 00:00,,
2011-12-23 00:00,,
2011-12-24 00:00,2.58,
2011-12-25 00:00,1.88,
2011-12-26 00:00,0.83,
2011-12-27 00:00,1.15,
2011-12-28 00:00,1.48,
2011-12-29 00:00,,
2011-12-30 00:00,,
2011-12-31 00:00,0.06,
2012-01-01 00:00,,
2012-01-02 00:00,,
2012-01-03 00:00,,
2012-01-04 00:00,,
2012-01-05 00:00,,
2012-01-06 00:00,,
2012-01-07 00:00,,
2012-01-08 00:00,,
2012-01-09 00:00,,
2012-01-10 00:00,,
2012-01-11 00:00,,
2012-01-12 00:00,,
2012-01-13 00:00,,
2012-01-14 00:00,,
2012-01-15 00:00,,
2012-01-16 00:00,,
2012-01-17 00:00,,
2012-01-18 00:00,1.05,
2012-01-19 00:00,2.24,
2012-01-20 00:00,2.28,
2012-01-21 00:00,1.72,
2012-01-22 00:00,2.27,
2012-01-23 00:00,2.36,
2012-01-24 00:00,1.88,
2012-01-25 00:00,1.32,
2012-01-26 00:00,1.91,
2012-01-27 00:00,2.30,
2012-01-28 00:00,2.40,
2012-01-29 00:00,2.78,
2012-01-30 00:00,2.47,
2012-01-31 00:00,3.18,
2012-02-01 00:00,2.98,
2012-02-02 00:00,1.67,
2012-02-03 00:00,0.45,
2012-02-04 00:00,0.55,
2012-02-05 00:00,0.86,
2012-02-06 00:00,0.22,
2012-02-07 00:00,,
2012-02-08 00:00,,
2012-02-09 00:00,,
2012-02-10 00:00,,
2012-02-11 00:00,,
2012-02-12 00:00,1.69,
2012-02-13 00:00,10.23,
2012-02-14 00:00,4.12,
2012-02-15 00:00,4.10,
2012-02-16 00:00,3.42,
2012-02-17 00:00,4.37,
2012-02-18 00:00,5.63,
2012-02-19 00:00,3.83,
2012-02-20 00:00,7.20,
2012-02-21 00:00,1.02,
2012-02-22 00:00,0.98,
2012-02-23 00:00,0.38,
2012-02-24 00:00,0.13,
2012-02-25 00:00,0.11,
2012-02-26 00:00,0.13,
2012-02-27 00:00,0.23,
2012-02-28 00:00,0.30,
2012-02-29 00:00,0.31,
2012-03-01 00:00,0.01,
2012-03-02 00:00,,
2012-03-03 00:00,0.04,
2012-03-04 00:00,0.02,
2012-03-05 00:00,,
2012-03-06 00:00,,
2012-03-07 00:00,,
2012-03-08 00:00,0.27,
2012-03-09 00:00,1.00,
2012-03-10 00:00,1.38,
2012-03-11 00:00,2.78,
2012-03-12 00:00,2.40,
2012-03-13 00:00,1.73,
2012-03-14 00:00,1.64,
2012-03-15 00:00,1.45,
2012-03-16 00:00,0.46,
2012-03-17 00:00,0.75,
2012-03-18 00:00,0.11,
2012-03-19 00:00,1.05,
2012-03-20 00:00,1.45,
2012-03-21 00:00,3.04,
2012-03-22 00:00,3.06,
2012-03-23 00:00,3.51,
2012-03-24 00:00,4.75,
2012-03-25 00:00,5.76,
2012-03-26 00:00,6.14,
2012-03-27 00:00,5.45,
2012-03-28 00:00,7.17,
2012-03-29 00:00,6.88,
2012-03-30 00:00,8.15,
2012-03-31 00:00,13.58,
2012-04-01 00:00,25.17,
2012-04-02 00:00,28.18,
2012-04-03 00:00,30.59,
2012-04-04 00:00,33.95,
2012-04-05 00:00,32.92,
2012-04-06 00:00,32.65,
2012-04-07 00:00,37.81,
2012-04-08 00:00,41.08,
2012-04-09 00:00,39.41,
2012-04-10 00:00,38.01,
2012-04-11 00:00,32.46,
2012-04-12 00:00,29.26,
2012-04-13 00:00,27.81,
2012-04-14 00:00,26.03,
2012-04-15 00:00,27.10,
2012-04-16 00:00,28.83,
2012-04-17 00:00,30.46,
2012-04-18 00:00,28.12,
2012-04-19 00:00,30.90,
2012-04-20 00:00,31.11,
2012-04-21 00:00,27.88,
2012-04-22 00:00,28.38,
2012-04-23 00:00,33.39,
2012-04-24 00:00,34.88,
2012-04-25 00:00,36.88,
2012-04-26 00:00,35.61,
2012-04-27 00:00,40.35,
2012-04-28 00:00,38.62,
2012-04-29 00:00,30.87,
2012-04-30 00:00,30.07,
2012-05-01 00:00,28.38,
2012-05-02 00:00,18.84,
2012-05-03 00:00,,
2012-05-04 00:00,0.14,
2012-05-05 00:00,0.04,
2012-05-06 00:00,0.11,
2012-05-07 00:00,0.28,
2012-05-08 00:00,0.08,
2012-05-09 00:00,0.42,
2012-05-10 00:00,0.05,
2012-05-11 00:00,3.10,
2012-05-12 00:00,1.03,
2012-05-13 00:00,0.91,
2012-05-14 00:00,3.40,
2012-05-15 00:00,1.28,
2012-05-16 00:00,1.57,
2012-05-17 00:00,0.42,
2012-05-18 00:00,,
2012-05-19 00:00,,
2012-05-20 00:00,,
2012-05-21 00:00,,
2012-05-22 00:00,,
2012-05-23 00:00,,
2012-05-24 00:00,,
2012-05-25 00:00,,
2012-05-26 00:00,,
2012-05-27 00:00,,
2012-05-28 00:00,0.10,
2012-05-29 00:00,,
2012-05-30 00:00,0.11,
2012-05-31 00:00,,
2012-06-01 00:00,,
2012-06-02 00:00,,
2012-06-03 00:00,,
2012-06-04 00:00,,
2012-06-05 00:00,,
2012-06-06 00:00,,
2012-06-07 00:00,,
2012-06-08 00:00,0.13,
2012-06-09 00:00,,
2012-06-10 00:00,0.13,
2012-06-11 00:00,0.18,
2012-06-12 00:00,0.32,
2012-06-13 00:00,0.08,
2012-06-14 00:00,,
2012-06-15 00:00,0.06,
2012-06-16 00:00,0.06,
2012-06-17 00:00,0.02,
2012-06-18 00:00,0.34,
2012-06-19 00:00,2.34,
2012-06-20 00:00,1.05,
2012-06-21 00:00,,
2012-06-22 00:00,,
2012-06-23 00:00,,
2012-06-24 00:00,,
2012-06-25 00:00,,
2012-06-26 00:00,,
2012-06-27 00:00,,
2012-06-28 00:00,,
2012-06-29 00:00,,
2012-06-30 00:00,,
2012-07-01 00:00,,
2012-07-02 00:00,,
2012-07-03 00:00,0.54,
2012-07-04 00:00,2.59,
2012-07-05 00:00,2.49,
2012-07-06 00:00,,
2012-07-07 00:00,,
2012-07-08 00:00,,
2012-07-09 00:00,,
2012-07-10 00:00,,
2012-07-11 00:00,,
2012-07-12 00:00,,
2012-07-13 00:00,,
2012-07-14 00:00,,
2012-07-15 00:00,,
2012-07-16 00:00,,
2012-07-17 00:00,,
2012-07-18 00:00,,
2012-07-19 00:00,,
2012-07-20 00:00,,
2012-07-21 00:00,,
2012-07-22 00:00,,
2012-07-23 00:00,,
2012-07-24 00:00,,
2012-07-25 00:00,,
2012-07-26 00:00,,
2012-07-27 00:00,,
2012-07-28 00:00,,
2012-07-29 00:00,,
2012-07-30 00:00,,
2012-07-31 00:00,,
2012-08-01 00:00,,
2012-08-02 00:00,,
2012-08-03 00:00,,
2012-08-04 00:00,,
2012-08-05 00:00,,
2012-08-06 00:00,,
2012-08-07 00:00,,
2012-08-08 00:00,,
2012-08-09 00:00,,
2012-08-10 00:00,,
2012-08-11 00:00,,
2012-08-12 00:00,,
2012-08-13 00:00,,
2012-08-14 00:00,,
2012-08-15 00:00,,
2012-08-16 00:00,,
2012-08-17 00:00,,
2012-08-18 00:00,,
2012-08-19 00:00,,
2012-08-20 00:00,,
2012-08-21 00:00,,
2012-08-22 00:00,,
2012-08-23 00:00,,
2012-08-24 00:00,,
2012-08-25 00:00,,
2012-08-26 00:00,,
2012-08-27 00:00,,
2012-08-28 00:00,,
2012-08-29 00:00,,
2012-08-30 00:00,,
2012-08-31 00:00,,
2012-09-01 00:00,,
2012-09-02 00:00,,
2012-09-03 00:00,6.44,
2012-09-04 00:00,5.54,
2012-09-05 00:00,7.48,
2012-09-06 00:00,31.32,
2012-09-07 00:00,50.53,
2012-09-08 00:00,58.51,
2012-09-09 00:00,85.29,
2012-09-10 00:00,74.16,
2012-09-11 00:00,27.71,
2012-09-12 00:00,51.61,
2012-09-13 00:00,10.38,
2012-09-14 00:00,8.27,
2012-09-15 00:00,4.47,
2012-09-16 00:00,6.32,
2012-09-17 00:00,6.36,
2012-09-18 00:00,7.77,
2012-09-19 00:00,13.28,
2012-09-20 00:00,10.32,
2012-09-21 00:00,1.45,
2012-09-22 00:00,2.61,
2012-09-23 00:00,3.23,
2012-09-24 00:00,5.15,
2012-09-25 00:00,9.38,
2012-09-26 00:00,7.07,
2012-09-27 00:00,6.85,
2012-09-28 00:00,5.34,
2012-09-29 00:00,4.08,
2012-09-30 00:00,4.05,
2012-10-01 00:00,2.54,
2012-10-02 00:00,0.01,
2012-10-03 00:00,1.85,
2012-10-04 00:00,3.25,
2012-10-05 00:00,4.12,
2012-10-06 00:00,1.00,
2012-10-07 00:00,,
2012-10-08 00:00,,
2012-10-09 00:00,,
2012-10-10 00:00,,
2012-10-11 00:00,,
2012-10-12 00:00,,
2012-10-13 00:00,,
2012-10-14 00:00,,
2012-10-15 00:00,0.63,
2012-10-16 00:00,0.02,
2012-10-17 00:00,11.15,
2012-10-18 00:00,18.83,
2012-10-19 00:00,13.39,
2012-10-20 00:00,14.03,
2012-10-21 00:00,27.28,
2012-10-22 00:00,44.33,
2012-10-23 00:00,63.92,
2012-10-24 00:00,72.71,
2012-10-25 00:00,65.67,
2012-10-26 00:00,60.83,
2012-10-27 00:00,62.85,
2012-10-28 00:00,64.52,
2012-10-29 00:00,68.84,
2012-10-30 00:00,61.97,
2012-10-31 00:00,49.57,
2012-11-01 00:00,53.63,
2012-11-02 00:00,51.35,
2012-11-03 00:00,41.89,
2012-11-04 00:00,35.29,
2012-11-05 00:00,28.48,
2012-11-06 00:00,44.26,
2012-11-07 00:00,49.01,
2012-11-08 00:00,52.62,
2012-11-09 00:00,53.33,
2012-11-10 00:00,61.84,
2012-11-11 00:00,65.99,
2012-11-12 00:00,77.05,
2012-11-13 00:00,72.72,
2012-11-14 00:00,55.34,
2012-11-15 00:00,74.50,
2012-11-16 00:00,37.37,
2012-11-17 00:00,35.91,
2012-11-18 00:00,34.86,
2012-11-19 00:00,18.19,
2012-11-20 00:00,16.03,
2012-11-21 00:00,24.05,
2012-11-22 00:00,19.80,
2012-11-23 00:00,10.85,
2012-11-24 00:00,15.67,
2012-11-25 00:00,7.51,
2012-11-26 00:00,27.51,
2012-11-27 00:00,22.05,
2012-11-28 00:00,19.92,
2012-11-29 00:00,29.43,
2012-11-30 00:00,30.15,
2012-12-01 00:00,36.37,
2012-12-02 00:00,32.99,
2012-12-03 00:00,30.92,
2012-12-04 00:00,31.83,
2012-12-05 00:00,37.30,
2012-12-06 00:00,36.21,
2012-12-07 00:00,34.58,
2012-12-08 00:00,32.16,
2012-12-09 00:00,26.26,
2012-12-10 00:00,41.08,
2012-12-11 00:00,35.43,
2012-12-12 00:00,46.07,
2012-12-13 00:00,35.53,
2012-12-14 00:00,41.65,
2012-12-15 00:00,41.32,
2012-12-16 00:00,40.17,
2012-12-17 00:00,37.43,
2012-12-18 00:00,34.66,
2012-12-19 00:00,31.21,
2012-12-20 00:00,32.44,
2012-12-21 00:00,37.27,
2012-12-22 00:00,39.28,
2012-12-23 00:00,42.74,
2012-12-24 00:00,40.70,
2012-12-25 00:00,36.73,
2012-12-26 00:00,40.76,
2012-12-27 00:00,44.28,
2012-12-28 00:00,40.27,
2012-12-29 00:00,36.42,
2012-12-30 00:00,31.10,
2012-12-31 00:00,30.94,
2013-01-01 00:00,17.20,
2013-01-02 00:00,5.72,
2013-01-03 00:00,4.20,
2013-01-04 00:00,1.96,
2013-01-05 00:00,0.97,
2013-01-06 00:00,1.26,
2013-01-07 00:00,29.16,
2013-01-08 00:00,71.50,
2013-01-09 00:00,92.78,
2013-01-10 00:00,54.22,
2013-01-11 00:00,52.32,
2013-01-12 00:00,43.16,
2013-01-13 00:00,39.74,
2013-01-14 00:00,34.42,
2013-01-15 00:00,39.66,
2013-01-16 00:00,36.62,
2013-01-17 00:00,35.18,
2013-01-18 00:00,12.81,
2013-01-19 00:00,16.25,
2013-01-20 00:00,26.32,
2013-01-21 00:00,15.94,
2013-01-22 00:00,28.71,
2013-01-23 00:00,26.85,
2013-01-24 00:00,22.98,
2013-01-25 00:00,23.16,
2013-01-26 00:00,15.04,
2013-01-27 00:00,10.67,
2013-01-28 00:00,12.31,
2013-01-29 00:00,14.68,
2013-01-30 00:00,7.32,
2013-01-31 00:00,4.87,
2013-02-01 00:00,4.51,
2013-02-02 00:00,5.62,
2013-02-03 00:00,6.68,
2013-02-04 00:00,6.71,
2013-02-05 00:00,4.77,
2013-02-06 00:00,3.98,
2013-02-07 00:00,3.72,
2013-02-08 00:00,,
2013-02-09 00:00,0.22,
2013-02-10 00:00,0.63,
2013-02-11 00:00,1.11,
2013-02-12 00:00,,
2013-02-13 00:00,2.04,
2013-02-14 00:00,1.21,
2013-02-15 00:00,0.80,
2013-02-16 00:00,2.18,
2013-02-17 00:00,1.85,
2013-02-18 00:00,54.90,
2013-02-19 00:00,3.30,
2013-02-20 00:00,13.85,
2013-02-21 00:00,36.24,
2013-02-22 00:00,4.60,
2013-02-23 00:00,4.63,
2013-02-24 00:00,26.42,
2013-02-25 00:00,16.52,
2013-02-26 00:00,21.32,
2013-02-27 00:00,33.60,
2013-02-28 00:00,5.73,
2013-03-01 00:00,10.10,
2013-03-02 00:00,,
2013-03-03 00:00,22.70,
2013-03-04 00:00,,
2013-03-05 00:00,4.90,
2013-03-06 00:00,4.70,
2013-03-07 00:00,0.45,
2013-03-08 00:00,,
2013-03-09 00:00,8.18,
2013-03-10 00:00,,
2013-03-11 00:00,,
2013-03-12 00:00,,
2013-03-13 00:00,,
2013-03-14 00:00,,
2013-03-15 00:00,,
2013-03-16 00:00,,
2013-03-17 00:00,,
2013-03-18 00:00,,
2013-03-19 00:00,,
2013-03-20 00:00,,
2013-03-21 00:00,,
2013-03-22 00:00,,
2013-03-23 00:00,,
2013-03-24 00:00,,
2013-03-25 00:00,,
2013-03-26 00:00,,
2013-03-27 00:00,,
2013-03-28 00:00,,
2013-03-29 00:00,,
2013-03-30 00:00,,
2013-03-31 00:00,,
2013-04-01 00:00,,
2013-04-02 00:00,,
2013-04-03 00:00,,
2013-04-04 00:00,,
2013-04-05 00:00,,
2013-04-06 00:00,,
2013-04-07 00:00,2.00,
2013-04-08 00:00,,
2013-04-09 00:00,,
2013-04-10 00:00,,
2013-04-11 00:00,,
2013-04-12 00:00,,
2013-04-13 00:00,,
2013-04-14 00:00,,
2013-04-15 00:00,,
2013-04-16 00:00,,
2013-04-17 00:00,,
2013-04-18 00:00,,
2013-04-19 00:00,,
2013-04-20 00:00,,
2013-04-21 00:00,,
2013-04-22 00:00,,
2013-04-23 00:00,,
2013-04-24 00:00,,
2013-04-25 00:00,,
2013-04-26 00:00,,
2013-04-27 00:00,,
2013-04-28 00:00,,
2013-04-29 00:00,,
2013-04-30 00:00,17.70,
2013-05-01 00:00,,
2013-05-02 00:00,,
2013-05-03 00:00,,
2013-05-04 00:00,,
2013-05-05 00:00,,
2013-05-06 00:00,,
2013-05-07 00:00,,
2013-05-08 00:00,,
2013-05-09 00:00,,
2013-05-10 00:00,,
2013-05-11 00:00,2.38,
2013-05-12 00:00,7.56,
2013-05-13 00:00,14.94,
2013-05-14 00:00,13.43,
2013-05-15 00:00,11.16,
